Погода в Шалон-ан-Шампани

Франция     48°57′21″N   4°21′57″E
темп.,
°C
ветер,
м/с
пор.,
м/с
влажн.,
%
обл.,
%
осадки,
мм/ч
давл.,
гПа
погр.,
м
23 мая, пн
пн2323:00+15всв337997 0.0 100839
02:00+14в2270100 0.1 100729
05:00+14юз2292100 2.8 100543
08:00+16ююв3696100 6.8 1003287
11:00+21ююз6982100 0.1 1002912
14:00+19ююз7128892 1.7 10011168
17:00+17юз8139498 2.6 1000753
20:00+15з7119042 2.8 1003735
24 мая, вт
вт2423:00+12юз259298 0.0 1006174
02:00+13зюз5994100 0.6 1005443
05:00+11юз5109458 0.8 1007540
08:00+11юз5109468 0.8 1008522
11:00+14зюз5769100 0.1 10091316
14:00+16зюз6859100 0.3 10101784
17:00+17зюз5757100 0.2 10101829
20:00+14зюз3772100 0.3 1011217
25 мая, ср
ср2523:00+10юз22795 0.0 101420
02:00+9зсз11873 0.0 101510
05:00+8юз11892 0.0 101610
08:00+11юз22821 0.0 1018145
11:00+16зюз346661 0.0 10181003
14:00+18зюз56535 0.0 10181750
17:00+19зюз575298 0.0 10181979
20:00+16зюз487087 0.0 1019292
26 мая, чт
чт2623:00+12зюз228090 0.0 102115
02:00+14юз2373100 0.0 102266
05:00+14зюз237626 0.0 102267
08:00+13з24840 0.0 1024259
11:00+17з346619 0.0 10241109
14:00+20з33565 0.0 10241467
17:00+21з335580 0.0 10231511
20:00+19зсз357576 0.0 1023134
27 мая, пт
пт2723:00+15зсз338496 0.0 102428
02:00+12зсз229295 0.0 102413
05:00+11з229414 0.0 102425
08:00+13з37866 0.0 1024291
11:00+17сз457194 0.0 1024986
14:00+18сз4572100 0.1 10241063
17:00+18ссз4571100 0.3 10241131
20:00+17сз2476100 0.4 1024112